Location: Kassel
(51.3127°N, 9.4797°E)
Time: 03:14:38
(UTC+01:00)

ISS - Pass Details

Date: 27 July 2018
Orbit: 403 x 411 km, 51.6° (Epoch: 21 February)

Event Time Altitude Azimuth Distance (km) Brightness Sun altitude
Rises 22:33:19 0° 271° (W) 2,344 0.7 -9.9°
Reaches altitude 10° 22:35:24 10° 272° (W) 1,486 -0.3 -10.1°
Maximum altitude 22:38:44 82° 359° (N) 425 -3.7 -10.4°
Drops below altitude 10° 22:42:07 10° 89° (E) 1,500 -1.3 -10.7°
Enters shadow 22:42:43 - 90° (E) 1,745 -1.0 -10.8°
